{"data":{"norad_id":58379,"epoch":"2026-09-20T00:28:46.050816Z","epoch_age_seconds":185123,"freshness":"STALE","line1":"1 58379U 23178F   26263.01997744  .00001207  00000+0  46873-4 0  9994","line2":"2 58379  53.1593 174.2220 0001054 110.0432 250.0684 15.34391365159706","mean_motion":15.34391365,"eccentricity":0.0001054,"inclination_deg":53.1593,"raan_deg":174.222,"arg_perigee_deg":110.0432,"mean_anomaly_deg":250.0684,"bstar":4.6873e-5,"rev_number":15970,"period_min":93.848286222596,"perigee_km":462.00787810078,"apogee_km":463.44993263364,"semimajor_km":6840.8659053672,"source":"CELESTRAK","updated_at":"2026-09-21T09:00:33.865693Z"}}